Location: Pandora
(40.9481°N, 83.9611°W)
Time: 23:15:09
(UTC-04:00)

Envisat - Pass Details

Date: 19 September 2021
Orbit: 764 x 766 km, 98.2° (Epoch: 15 October)

Event Time Altitude Azimuth Distance (km) Brightness Sun altitude
Rises 05:23:17 0° 34° (NE) 3,237 7.2 -22.4°
Reaches altitude 10° 05:26:57 10° 62° (ENE) 2,304 6.6 -21.7°
Maximum altitude 05:29:17 13° 89° (E) 2,088 6.2 -21.3°
Drops below altitude 10° 05:31:37 10° 117° (ESE) 2,296 6.0 -20.9°
Sets 05:35:14 0° 144° (SE) 3,215 6.4 -20.3°
